Time,TemperatureF,DewpointF,PressureIn,WindDirection,WindDirectionDegrees,WindSpeedMPH,WindSpeedGustMPH,Humidity,HourlyPrecipIn,Conditions,Clouds,dailyrainin,SoftwareType,DateUTC
2013-02-11 04:56:00,44.7,44.7,30.02,SSW,211,0.0,0.0,100,0.00,,-RA,0.02,VWS V14.00,2013-02-11 09:56:00,
2013-02-11 04:57:00,44.6,44.6,30.02,SSW,211,0.0,0.0,100,0.00,,-RA,0.02,VWS V14.00,2013-02-11 09:57:00,
2013-02-11 05:02:00,44.7,44.7,30.02,SSW,211,0.0,0.0,100,0.00,,-RA,0.02,VWS V14.00,2013-02-11 10:02:00,
2013-02-11 05:07:00,44.6,44.6,30.02,SSW,211,0.0,0.0,100,0.00,,-RA,0.02,VWS V14.00,2013-02-11 10:07:00,
2013-02-11 05:12:00,44.6,44.6,30.03,SSW,211,0.0,0.0,100,0.00,,-RA,0.02,VWS V14.00,2013-02-11 10:12:00,
2013-02-11 05:17:00,44.5,44.5,30.03,SSW,211,0.0,0.0,100,0.00,,-RA,0.02,VWS V14.00,2013-02-11 10:17:00,
2013-02-11 05:22:00,44.5,44.5,30.03,SSW,211,0.0,0.0,100,0.00,,-RA,0.02,VWS V14.00,2013-02-11 10:22:00,
2013-02-11 05:27:00,44.4,44.4,30.03,SSW,211,0.0,0.0,100,0.01,,-RA,0.03,VWS V14.00,2013-02-11 10:27:00,
2013-02-11 05:32:00,44.3,44.3,30.03,SSW,211,0.0,0.0,100,0.01,,-RA,0.03,VWS V14.00,2013-02-11 10:32:00,
2013-02-11 05:37:00,44.1,44.1,30.03,North,356,0.0,4.2,100,0.01,,-RA,0.03,VWS V14.00,2013-02-11 10:37:00,
2013-02-11 05:42:00,43.8,43.8,30.02,North,356,0.0,4.2,100,0.01,,-RA,0.03,VWS V14.00,2013-02-11 10:42:00,
2013-02-11 05:47:00,43.6,43.6,30.02,North,356,0.0,4.2,100,0.01,,-RA,0.03,VWS V14.00,2013-02-11 10:47:00,
2013-02-11 05:52:00,43.2,43.2,30.01,NNE,24,0.0,4.2,100,0.01,,-RA,0.03,VWS V14.00,2013-02-11 10:52:00,
2013-02-11 05:57:00,42.7,42.7,30.01,NNE,24,0.0,4.2,100,0.02,,-RA,0.04,VWS V14.00,2013-02-11 10:57:00,
2013-02-11 06:02:00,42.5,42.5,30.01,NNE,24,0.0,4.2,100,0.01,,-RA,0.04,VWS V14.00,2013-02-11 11:02:00,
2013-02-11 06:07:00,42.2,42.2,30.02,NNE,24,0.0,4.2,100,0.01,,-RA,0.04,VWS V14.00,2013-02-11 11:07:00,
2013-02-11 06:12:00,42.3,42.3,30.02,NNE,24,0.0,4.2,100,0.01,,-RA,0.04,VWS V14.00,2013-02-11 11:12:00,
2013-02-11 06:17:00,42.2,42.2,30.02,NNE,24,0.0,4.2,100,0.01,,-RA,0.04,VWS V14.00,2013-02-11 11:17:00,
2013-02-11 06:22:00,42.2,42.2,30.02,NNE,24,0.0,4.2,100,0.01,,-RA,0.04,VWS V14.00,2013-02-11 11:22:00,
2013-02-11 06:27:00,42.3,42.3,30.02,NNE,24,0.0,4.2,100,0.01,,-RA,0.04,VWS V14.00,2013-02-11 11:27:00,
2013-02-11 06:32:00,42.3,42.3,30.02,NNE,24,0.0,4.2,100,0.01,,-RA,0.04,VWS V14.00,2013-02-11 11:32:00,
2013-02-11 06:37:00,42.2,42.2,30.02,NNE,24,0.0,4.2,100,0.01,,-RA,0.04,VWS V14.00,2013-02-11 11:37:00,
2013-02-11 06:42:00,42.2,42.2,30.02,NNE,24,0.0,4.2,100,0.01,,-RA,0.04,VWS V14.00,2013-02-11 11:42:00,
2013-02-11 06:47:00,42.2,42.2,30.03,NNE,24,0.0,4.2,100,0.01,,-RA,0.04,VWS V14.00,2013-02-11 11:47:00,
2013-02-11 06:52:00,42.3,42.3,30.03,NNE,24,0.0,4.2,100,0.01,,-RA,0.04,VWS V14.00,2013-02-11 11:52:00,
2013-02-11 06:57:00,42.3,42.3,30.03,NNE,24,0.0,4.2,100,0.01,,-RA,0.04,VWS V14.00,2013-02-11 11:57:00,
2013-02-11 07:02:00,42.3,42.3,30.02,NNE,24,0.0,4.2,100,0.01,,-RA,0.04,VWS V14.00,2013-02-11 12:02:00,
2013-02-11 07:07:00,42.2,42.2,30.02,NNE,24,0.0,4.2,100,0.00,,-RA,0.04,VWS V14.00,2013-02-11 12:07:00,
2013-02-11 07:12:00,42.2,42.2,30.01,NNE,24,0.0,4.2,100,0.00,,-RA,0.04,VWS V14.00,2013-02-11 12:12:00,
2013-02-11 07:17:00,42.3,42.3,30.01,NNE,24,0.0,4.2,100,0.00,,-RA,0.04,VWS V14.00,2013-02-11 12:17:00,
2013-02-11 07:22:00,42.2,42.2,30.01,NNE,24,0.0,4.2,100,0.00,,-RA,0.04,VWS V14.00,2013-02-11 12:22:00,
2013-02-11 07:27:00,42.2,42.2,30.00,NNE,24,0.0,4.2,100,0.00,,-RA,0.04,VWS V14.00,2013-02-11 12:27:00,
2013-02-11 07:32:00,42.3,42.3,29.99,NNE,24,0.0,4.2,100,0.00,,-RA,0.04,VWS V14.00,2013-02-11 12:32:00,
2013-02-11 07:37:00,42.4,42.4,29.99,NNE,24,0.0,4.2,100,0.00,,-RA,0.04,VWS V14.00,2013-02-11 12:37:00,
2013-02-11 07:42:00,42.6,42.6,29.99,NNE,24,0.0,4.2,100,0.00,,-RA,0.04,VWS V14.00,2013-02-11 12:42:00,
2013-02-11 07:47:00,42.7,42.7,29.98,NNE,24,0.0,4.2,100,0.00,,-RA,0.04,VWS V14.00,2013-02-11 12:47:00,
2013-02-11 07:52:00,42.5,42.5,29.98,NNE,24,0.0,4.2,100,0.00,,-RA,0.04,VWS V14.00,2013-02-11 12:52:00,
2013-02-11 07:57:00,42.6,42.6,29.97,NNE,24,0.0,4.2,100,0.00,,-RA,0.04,VWS V14.00,2013-02-11 12:57:00,
2013-02-11 08:02:00,42.8,42.8,29.99,NNE,24,0.0,4.2,100,0.00,,-RA,0.04,VWS V14.00,2013-02-11 13:02:00,
2013-02-11 08:07:00,42.9,42.9,29.99,NNE,24,0.0,4.2,100,0.00,,-RA,0.04,VWS V14.00,2013-02-11 13:07:00,
2013-02-11 08:12:00,43.1,43.1,29.99,NNE,24,0.0,4.2,100,0.00,,-RA,0.04,VWS V14.00,2013-02-11 13:12:00,
2013-02-11 08:17:00,43.0,43.0,29.99,NNE,24,0.0,4.2,100,0.00,,-RA,0.04,VWS V14.00,2013-02-11 13:17:00,
2013-02-11 08:23:00,43.1,43.1,30.00,NNE,24,0.0,4.2,100,0.00,,-RA,0.04,VWS V14.00,2013-02-11 13:23:00,
2013-02-11 08:28:00,43.1,43.1,30.00,NNE,24,0.0,4.2,100,0.00,,-RA,0.04,VWS V14.00,2013-02-11 13:28:00,
2013-02-11 08:33:00,43.3,43.3,30.00,NNE,24,0.0,4.2,100,0.00,,-RA,0.04,VWS V14.00,2013-02-11 13:33:00,
2013-02-11 08:38:00,43.3,43.3,30.00,NNE,24,0.0,4.2,100,0.00,,-RA,0.04,VWS V14.00,2013-02-11 13:38:00,
2013-02-11 08:43:00,43.3,43.3,30.00,NNE,24,0.0,4.2,100,0.00,,-RA,0.04,VWS V14.00,2013-02-11 13:43:00,
2013-02-11 08:48:00,43.3,43.3,30.00,NNE,24,0.0,4.2,100,0.00,,-RA,0.04,VWS V14.00,2013-02-11 13:48:00,
2013-02-11 08:53:00,43.3,43.3,29.99,NNE,24,0.0,4.2,100,0.00,,-RA,0.04,VWS V14.00,2013-02-11 13:53:00,
2013-02-11 08:58:00,43.3,43.3,30.00,NNE,24,0.0,4.2,100,0.00,,-RA,0.04,VWS V14.00,2013-02-11 13:58:00,
2013-02-11 09:03:00,43.4,43.4,30.00,NNE,24,0.0,4.2,100,0.00,,-RA,0.04,VWS V14.00,2013-02-11 14:03:00,
2013-02-11 09:08:00,43.4,43.4,29.99,NNE,24,0.0,4.2,100,0.00,,-RA,0.04,VWS V14.00,2013-02-11 14:08:00,
2013-02-11 09:13:00,43.5,43.5,29.99,NNE,24,0.0,4.2,100,0.00,,-RA,0.04,VWS V14.00,2013-02-11 14:13:00,
2013-02-11 09:18:00,43.5,43.5,29.99,NNE,24,0.0,4.2,100,0.00,,-RA,0.04,VWS V14.00,2013-02-11 14:18:00,
2013-02-11 09:23:00,43.6,43.6,29.99,NNE,24,0.0,4.2,100,0.00,,-RA,0.04,VWS V14.00,2013-02-11 14:23:00,
2013-02-11 09:28:00,43.7,43.7,30.00,NNE,24,0.0,4.2,100,0.00,,-RA,0.04,VWS V14.00,2013-02-11 14:28:00,
2013-02-11 09:33:00,43.6,43.6,30.00,NNE,24,0.0,4.2,100,0.00,,-RA,0.04,VWS V14.00,2013-02-11 14:33:00,
2013-02-11 09:38:00,43.8,43.8,29.99,WNW,294,0.0,4.2,100,0.00,,-RA,0.04,VWS V14.00,2013-02-11 14:38:00,
2013-02-11 09:43:00,43.9,43.9,30.00,WNW,294,0.0,4.2,100,0.00,,-RA,0.04,VWS V14.00,2013-02-11 14:43:00,
2013-02-11 09:48:00,44.0,44.0,29.99,WNW,294,0.0,4.2,100,0.00,,-RA,0.04,VWS V14.00,2013-02-11 14:48:00,
2013-02-11 09:53:00,44.1,44.1,30.00,WNW,294,0.0,4.2,100,0.00,,-RA,0.04,VWS V14.00,2013-02-11 14:53:00,
2013-02-11 09:58:00,44.3,44.3,30.00,WNW,294,0.0,4.2,100,0.00,,-RA,0.04,VWS V14.00,2013-02-11 14:58:00,
2013-02-11 10:03:00,44.7,44.7,29.99,WNW,294,0.0,4.2,100,0.00,,-RA,0.04,VWS V14.00,2013-02-11 15:03:00,
2013-02-11 10:08:00,44.9,44.9,29.99,WNW,294,0.0,4.2,100,0.00,,-RA,0.04,VWS V14.00,2013-02-11 15:08:00,
2013-02-11 10:13:00,44.9,44.9,29.99,WNW,294,0.0,4.2,100,0.00,,-RA,0.04,VWS V14.00,2013-02-11 15:13:00,
2013-02-11 10:18:00,45.0,45.0,29.98,WNW,294,0.0,4.2,100,0.00,,-RA,0.04,VWS V14.00,2013-02-11 15:18:00,
2013-02-11 10:23:00,45.0,45.0,29.98,WNW,294,0.0,4.2,100,0.00,,-RA,0.04,VWS V14.00,2013-02-11 15:23:00,
2013-02-11 10:28:00,45.4,45.4,29.97,WNW,294,0.0,4.2,100,0.00,,-RA,0.04,VWS V14.00,2013-02-11 15:28:00,
2013-02-11 10:33:00,44.0,44.0,29.97,WNW,294,0.0,4.2,100,0.00,,-RA,0.04,VWS V14.00,2013-02-11 15:33:00,
2013-02-11 10:38:00,43.9,43.9,29.97,WNW,294,0.0,4.2,100,0.00,,-RA,0.04,VWS V14.00,2013-02-11 15:38:00,
2013-02-11 10:43:00,44.9,44.9,29.97,WNW,294,0.0,4.2,100,0.00,,-RA,0.04,VWS V14.00,2013-02-11 15:43:00,
2013-02-11 10:48:00,43.9,43.9,29.97,WNW,294,0.0,4.2,100,0.00,,-RA,0.04,VWS V14.00,2013-02-11 15:48:00,
2013-02-11 10:53:00,45.4,45.4,29.97,WNW,294,0.0,4.2,100,0.00,,-RA,0.04,VWS V14.00,2013-02-11 15:53:00,
2013-02-11 10:58:00,43.8,43.8,29.97,WNW,294,0.0,4.2,100,0.00,,-RA,0.04,VWS V14.00,2013-02-11 15:58:00,
2013-02-11 11:03:00,46.7,46.7,29.97,WNW,294,0.0,4.2,100,0.00,,-RA,0.04,VWS V14.00,2013-02-11 16:03:00,
2013-02-11 11:08:00,45.4,45.4,29.97,WNW,294,0.0,4.2,100,0.00,,-RA,0.04,VWS V14.00,2013-02-11 16:08:00,
2013-02-11 11:13:00,45.4,45.4,29.97,WNW,294,0.0,4.2,100,0.00,,-RA,0.04,VWS V14.00,2013-02-11 16:13:00,
2013-02-11 11:18:00,45.5,45.5,29.97,WNW,294,0.0,4.2,100,0.00,,-RA,0.04,VWS V14.00,2013-02-11 16:18:00,
2013-02-11 13:52:00,50.5,50.5,29.89,West,267,4.8,4.8,100,0.00,,-RA,0.04,VWS V14.00,2013-02-11 18:52:00,
2013-02-11 13:57:00,50.7,50.7,29.89,SW,221,5.3,12.3,100,0.00,,-RA,0.04,VWS V14.00,2013-02-11 18:57:00,
2013-02-11 14:02:00,51.1,51.1,29.89,WSW,256,0.0,5.7,100,0.00,,-RA,0.04,VWS V14.00,2013-02-11 19:02:00,
2013-02-11 14:07:00,51.1,51.1,29.89,SW,235,7.6,12.7,100,0.00,,,0.04,VWS V14.00,2013-02-11 19:07:00,
2013-02-11 14:12:00,51.1,51.1,29.88,WSW,238,3.2,12.7,100,0.00,,,0.04,VWS V14.00,2013-02-11 19:12:00,
2013-02-11 14:17:00,51.1,51.1,29.88,SW,233,0.0,9.0,100,0.00,,,0.04,VWS V14.00,2013-02-11 19:17:00,
2013-02-11 14:22:00,51.1,51.1,29.89,SW,233,3.3,9.0,100,0.00,,,0.04,VWS V14.00,2013-02-11 19:22:00,
2013-02-11 14:27:00,51.3,51.3,29.89,WNW,295,0.0,9.4,100,0.00,,,0.04,VWS V14.00,2013-02-11 19:27:00,
2013-02-11 14:32:00,51.3,51.3,29.90,NW,307,4.7,9.9,100,0.00,,,0.04,VWS V14.00,2013-02-11 19:32:00,
2013-02-11 14:37:00,51.0,51.0,29.90,WNW,290,0.0,10.0,100,0.00,,,0.04,VWS V14.00,2013-02-11 19:37:00,
2013-02-11 14:42:00,50.9,50.9,29.91,WSW,256,0.0,10.0,100,0.00,,,0.04,VWS V14.00,2013-02-11 19:42:00,
2013-02-11 14:47:00,51.2,51.2,29.90,West,267,7.9,9.4,100,0.00,,,0.04,VWS V14.00,2013-02-11 19:47:00,
2013-02-11 14:52:00,51.5,51.5,29.90,West,274,0.0,9.8,100,0.00,,,0.04,VWS V14.00,2013-02-11 19:52:00,
2013-02-11 14:57:00,51.1,51.1,29.90,NW,311,0.0,14.4,100,0.00,,,0.04,VWS V14.00,2013-02-11 19:57:00,
2013-02-11 15:02:00,51.1,51.1,29.90,WNW,295,7.4,7.4,100,0.00,,,0.04,VWS V14.00,2013-02-11 20:02:00,
2013-02-11 15:07:00,51.1,51.1,29.89,NNE,27,2.7,11.9,100,0.00,,,0.04,VWS V14.00,2013-02-11 20:07:00,
2013-02-11 15:12:00,51.0,51.0,29.89,WSW,238,6.5,11.9,100,0.00,,,0.04,VWS V14.00,2013-02-11 20:12:00,
2013-02-11 15:17:00,50.9,50.9,29.89,NW,308,3.0,10.3,100,0.00,,,0.04,VWS V14.00,2013-02-11 20:17:00,
2013-02-11 15:22:00,50.8,50.8,29.89,NW,307,0.0,10.3,100,0.00,,,0.04,VWS V14.00,2013-02-11 20:22:00,
2013-02-11 15:27:00,51.1,51.1,29.89,WSW,246,0.0,10.3,100,0.00,,,0.04,VWS V14.00,2013-02-11 20:27:00,
2013-02-11 15:32:00,51.0,51.0,29.89,West,273,7.5,7.6,100,0.00,,,0.04,VWS V14.00,2013-02-11 20:32:00,
2013-02-11 15:37:00,51.1,51.1,29.88,WSW,239,3.4,8.3,100,0.00,,,0.04,VWS V14.00,2013-02-11 20:37:00,
2013-02-11 15:42:00,51.4,51.4,29.87,West,260,0.0,10.1,100,0.00,,,0.04,VWS V14.00,2013-02-11 20:42:00,
2013-02-11 15:47:00,51.3,51.3,29.87,SW,236,4.7,8.1,100,0.00,,,0.04,VWS V14.00,2013-02-11 20:47:00,
2013-02-11 15:52:00,51.3,51.3,29.87,West,259,5.3,8.7,100,0.00,,,0.04,VWS V14.00,2013-02-11 20:52:00,
2013-02-11 15:57:00,51.8,51.8,29.88,SW,236,0.0,8.7,100,0.00,,,0.04,VWS V14.00,2013-02-11 20:57:00,
2013-02-11 16:02:00,51.8,51.8,29.88,NW,326,7.9,10.0,100,0.00,,,0.04,VWS V14.00,2013-02-11 21:02:00,
2013-02-11 16:07:00,51.6,51.6,29.88,NW,316,0.0,10.9,100,0.00,,,0.04,VWS V14.00,2013-02-11 21:07:00,
2013-02-11 16:12:00,51.3,51.3,29.88,West,278,0.0,10.9,100,0.00,,,0.04,VWS V14.00,2013-02-11 21:12:00,
2013-02-11 16:17:00,51.2,51.2,29.87,WNW,300,4.6,9.8,100,0.00,,,0.04,VWS V14.00,2013-02-11 21:17:00,
2013-02-11 16:22:00,51.7,51.7,29.88,WNW,290,0.0,9.8,100,0.00,,,0.04,VWS V14.00,2013-02-11 21:22:00,
2013-02-11 16:27:00,51.9,51.9,29.88,WSW,257,7.1,11.7,100,0.00,,,0.04,VWS V14.00,2013-02-11 21:27:00,
2013-02-11 16:32:00,51.4,51.4,29.87,West,264,3.5,6.6,100,0.00,,,0.04,VWS V14.00,2013-02-11 21:32:00,
2013-02-11 16:37:00,51.4,51.4,29.88,West,266,0.0,11.0,100,0.00,,,0.04,VWS V14.00,2013-02-11 21:37:00,
2013-02-11 16:42:00,51.6,51.6,29.88,West,263,3.2,11.0,100,0.00,,,0.04,VWS V14.00,2013-02-11 21:42:00,
2013-02-11 16:47:00,51.9,51.9,29.88,WSW,253,4.9,7.5,100,0.00,,,0.04,VWS V14.00,2013-02-11 21:47:00,
2013-02-11 16:52:00,51.6,51.6,29.88,WNW,298,0.0,11.2,100,0.00,,,0.04,VWS V14.00,2013-02-11 21:52:00,
2013-02-11 16:57:00,52.0,52.0,29.88,WSW,245,5.2,11.4,100,0.00,,,0.04,VWS V14.00,2013-02-11 21:57:00,
2013-02-11 17:02:00,51.9,51.9,29.88,WSW,238,3.4,8.8,100,0.00,,,0.04,VWS V14.00,2013-02-11 22:02:00,
2013-02-11 17:07:00,52.2,52.2,29.88,West,281,9.4,11.0,100,0.00,,,0.04,VWS V14.00,2013-02-11 22:07:00,
2013-02-11 17:12:00,52.5,52.5,29.88,WNW,297,4.3,11.0,100,0.00,,,0.04,VWS V14.00,2013-02-11 22:12:00,
2013-02-11 17:17:00,52.3,52.3,29.89,West,269,0.0,8.8,100,0.00,,,0.04,VWS V14.00,2013-02-11 22:17:00,
2013-02-11 17:22:00,51.2,51.2,29.88,SSW,193,2.9,11.1,100,0.00,,,0.04,VWS V14.00,2013-02-11 22:22:00,
2013-02-11 17:27:00,52.1,52.1,29.88,West,259,0.0,11.1,100,0.00,,,0.04,VWS V14.00,2013-02-11 22:27:00,
2013-02-11 17:32:00,52.6,52.6,29.88,West,269,8.5,9.9,100,0.00,,,0.04,VWS V14.00,2013-02-11 22:32:00,
2013-02-11 17:37:00,52.7,52.7,29.88,West,271,0.0,13.7,100,0.00,,,0.04,VWS V14.00,2013-02-11 22:37:00,
2013-02-11 17:42:00,53.0,53.0,29.88,West,266,0.0,13.7,100,0.00,,,0.04,VWS V14.00,2013-02-11 22:42:00,
2013-02-11 17:47:00,52.2,52.2,29.88,WNW,287,6.9,11.1,100,0.00,,OVC004,0.04,VWS V14.00,2013-02-11 22:47:00,
2013-02-11 17:52:00,51.9,51.9,29.88,West,280,3.0,11.1,100,0.00,,OVC004,0.04,VWS V14.00,2013-02-11 22:52:00,
2013-02-11 17:57:00,52.8,52.8,29.88,WSW,242,4.2,11.1,100,0.00,,OVC004,0.04,VWS V14.00,2013-02-11 22:57:00,
2013-02-11 18:02:00,51.3,51.3,29.88,SW,235,1.4,12.2,100,0.00,,OVC004,0.04,VWS V14.00,2013-02-11 23:02:00,
2013-02-11 18:07:00,52.1,52.1,29.87,NW,307,3.4,12.2,100,0.00,,OVC004,0.04,VWS V14.00,2013-02-11 23:07:00,
2013-02-11 18:12:00,52.9,52.9,29.87,SW,236,7.7,12.2,100,0.00,,OVC004,0.04,VWS V14.00,2013-02-11 23:12:00,
2013-02-11 18:17:00,52.0,52.0,29.87,WSW,250,0.0,9.9,100,0.00,,OVC004,0.04,VWS V14.00,2013-02-11 23:17:00,
2013-02-11 18:22:00,52.3,52.3,29.87,SSW,210,7.6,10.8,100,0.00,,OVC004,0.04,VWS V14.00,2013-02-11 23:22:00,
2013-02-11 18:27:00,53.0,53.0,29.87,SW,228,9.2,12.9,100,0.00,,OVC004,0.04,VWS V14.00,2013-02-11 23:27:00,
2013-02-11 18:32:00,52.3,52.3,29.88,WSW,257,6.7,11.3,100,0.00,,OVC004,0.04,VWS V14.00,2013-02-11 23:32:00,